| time (UTC) | temp C | wind direction | speed KPH | gust KPH | rain 1hr cm | rain 24hr cm | rain mn cm | humidity % | barometer mb |
| 20260503185502 | 17 | 219 | 38.6 | 57.9 | 0.00 | 0.00 | 0.00 | 46 | 1010.2 |
| 20260503185003 | 17 | 215 | 45.1 | 57.9 | 0.00 | 0.00 | 0.00 | 44 | 1010.3 |
| 20260503184508 | 17 | 223 | 33.8 | 51.5 | 0.00 | 0.00 | 0.00 | 48 | 1010.7 |
| 20260503184005 | 16 | 219 | 35.4 | 51.5 | 0.00 | 0.00 | 0.00 | 46 | 1011.0 |
| 20260503183504 | 16 | 224 | 35.4 | 51.5 | 0.00 | 0.00 | 0.00 | 47 | 1011.0 |
| 20260503183013 | 16 | 220 | 33.8 | 49.9 | 0.00 | 0.00 | 0.00 | 48 | 1011.2 |
| 20260503182503 | 16 | 201 | 33.8 | 45.1 | 0.00 | 0.00 | 0.00 | 47 | 1011.3 |
| 20260503182004 | 16 | 211 | 35.4 | 48.3 | 0.00 | 0.00 | 0.00 | 47 | 1011.6 |
| 20260503181517 | 16 | 224 | 38.6 | 48.3 | 0.00 | 0.00 | 0.00 | 46 | 1011.8 |
| 20260503181004 | 16 | 233 | 35.4 | 45.1 | 0.00 | 0.00 | 0.00 | 46 | 1012.0 |
| 20260503180505 | 16 | 224 | 32.2 | 46.7 | 0.00 | 0.00 | 0.00 | 46 | 1012.1 |
| 20260503180026 | 16 | 224 | 37.0 | 46.7 | 0.00 | 0.00 | 0.00 | 45 | 1012.1 |
| 20260503175504 | 16 | 227 | 32.2 | 41.8 | 0.00 | 0.00 | 0.00 | 47 | 1012.3 |
| 20260503175003 | 16 | 226 | 33.8 | 41.8 | 0.00 | 0.00 | 0.00 | 46 | 1012.5 |
| 20260503174513 | 16 | 245 | 30.6 | 41.8 | 0.00 | 0.00 | 0.00 | 48 | 1012.7 |
| 20260503174004 | 16 | 224 | 33.8 | 41.8 | 0.00 | 0.00 | 0.00 | 47 | 1012.9 |
| 20260503173503 | 16 | 215 | 27.4 | 41.8 | 0.00 | 0.00 | 0.00 | 48 | 1013.3 |
| 20260503173018 | 16 | 207 | 30.6 | 41.8 | 0.00 | 0.00 | 0.00 | 47 | 1013.2 |
| 20260503172504 | 16 | 236 | 29.0 | 38.6 | 0.00 | 0.00 | 0.00 | 49 | 1013.2 |
| 20260503172003 | 15 | 228 | 29.0 | 41.8 | 0.00 | 0.00 | 0.00 | 48 | 1013.1 |
| 20260503171512 | 15 | 224 | 30.6 | 41.8 | 0.00 | 0.00 | 0.00 | 47 | 1013.0 |
| 20260503171006 | 15 | 231 | 32.2 | 41.8 | 0.00 | 0.00 | 0.00 | 47 | 1013.1 |
| 20260503170506 | 15 | 220 | 32.2 | 40.2 | 0.00 | 0.00 | 0.00 | 47 | 1013.1 |
| 20260503150503 | 12 | 226 | 30.6 | 37.0 | 0.00 | 0.00 | 0.00 | 61 | 1015.1 |
| 20260503131005 | 10 | 224 | 25.7 | 32.2 | 0.00 | 0.00 | 0.00 | 72 | 1016.1 |
| 20260503130505 | 10 | 218 | 25.7 | 32.2 | 0.00 | 0.00 | 0.00 | 71 | 1015.9 |
| 20260503110507 | 6 | 205 | 19.3 | 25.7 | 0.00 | 0.00 | 0.00 | 75 | 1015.9 |
| 20260503090503 | 6 | 206 | 16.1 | 22.5 | 0.00 | 0.00 | 0.00 | 71 | 1016.4 |
| 20260503081518 | 6 | 221 | 17.7 | 20.9 | 0.00 | 0.00 | 0.00 | 67 | 1016.5 |
| 20260503081003 | 6 | 218 | 14.5 | 20.9 | 0.00 | 0.00 | 0.00 | 67 | 1016.6 |
| 20260503080503 | 6 | 218 | 16.1 | 20.9 | 0.00 | 0.00 | 0.00 | 66 | 1016.5 |
| 20260503072510 | 6 | 226 | 14.5 | 20.9 | 0.00 | 0.00 | 0.00 | 63 | 1016.5 |
| 20260503072008 | 6 | 205 | 16.1 | 20.9 | 0.00 | 0.00 | 0.00 | 62 | 1016.5 |
| 20260503071526 | 6 | 210 | 14.5 | 20.9 | 0.00 | 0.00 | 0.00 | 63 | 1016.6 |
| 20260503071008 | 6 | 216 | 14.5 | 19.3 | 0.00 | 0.00 | 0.00 | 63 | 1016.6 |
| 20260503070511 | 6 | 220 | 14.5 | 19.3 | 0.00 | 0.00 | 0.00 | 63 | 1016.6 |
| 20260503055011 | 6 | 211 | 9.7 | 16.1 | 0.00 | 0.00 | 0.00 | 63 | 1017.3 |
| 20260503054003 | 6 | 205 | 11.3 | 16.1 | 0.00 | 0.00 | 0.00 | 63 | 1017.4 |
| 20260503053504 | 7 | 220 | 12.9 | 16.1 | 0.00 | 0.00 | 0.00 | 63 | 1017.4 |
| 20260503052506 | 6 | 209 | 11.3 | 14.5 | 0.00 | 0.00 | 0.00 | 63 | 1017.5 |
| 20260503052008 | 6 | 208 | 9.7 | 14.5 | 0.00 | 0.00 | 0.00 | 63 | 1017.5 |
| 20260503051007 | 6 | 216 | 11.3 | 14.5 | 0.00 | 0.00 | 0.00 | 63 | 1017.5 |
| 20260503050507 | 6 | 217 | 11.3 | 14.5 | 0.00 | 0.00 | 0.00 | 64 | 1017.5 |
| 20260503050024 | 6 | 214 | 11.3 | 14.5 | 0.00 | 0.00 | 0.00 | 64 | 1017.5 |
| 20260503045509 | 6 | 224 | 11.3 | 14.5 | 0.00 | 0.00 | 0.00 | 64 | 1017.5 |
| 20260503045007 | 6 | 226 | 9.7 | 14.5 | 0.00 | 0.00 | 0.00 | 65 | 1017.5 |
| 20260503044529 | 6 | 225 | 11.3 | 14.5 | 0.00 | 0.00 | 0.00 | 65 | 1017.4 |
| 20260503044011 | 6 | 226 | 9.7 | 12.9 | 0.00 | 0.00 | 0.00 | 66 | 1017.5 |
| 20260503043510 | 6 | 228 | 11.3 | 12.9 | 0.00 | 0.00 | 0.00 | 65 | 1017.5 |
| 20260503043025 | 6 | 224 | 9.7 | 12.9 | 0.00 | 0.00 | 0.00 | 65 | 1017.5 |
| 20260503042504 | 7 | 231 | 9.7 | 12.9 | 0.00 | 0.00 | 0.00 | 65 | 1017.4 |
| 20260503042004 | 7 | 216 | 9.7 | 12.9 | 0.00 | 0.00 | 0.00 | 64 | 1017.5 |
| 20260503041520 | 7 | 215 | 9.7 | 12.9 | 0.00 | 0.00 | 0.00 | 63 | 1017.5 |
| 20260503041004 | 7 | 228 | 9.7 | 12.9 | 0.00 | 0.00 | 0.00 | 63 | 1017.5 |
| 20260503040504 | 7 | 217 | 9.7 | 12.9 | 0.00 | 0.00 | 0.00 | 63 | 1017.7 |
| 20260503040029 | 7 | 223 | 8.0 | 11.3 | 0.00 | 0.00 | 0.00 | 63 | 1017.7 |
| 20260503035505 | 7 | 228 | 8.0 | 11.3 | 0.00 | 0.00 | 0.00 | 64 | 1017.6 |
| 20260503035006 | 7 | 226 | 8.0 | 9.7 | 0.00 | 0.00 | 0.00 | 64 | 1017.6 |
| 20260503034526 | 7 | 221 | 8.0 | 9.7 | 0.00 | 0.00 | 0.00 | 65 | 1017.6 |
| 20260503034012 | 7 | 217 | 6.4 | 8.0 | 0.00 | 0.00 | 0.00 | 66 | 1017.6 |
| 20260503033509 | 7 | 224 | 4.8 | 9.7 | 0.00 | 0.00 | 0.00 | 65 | 1017.7 |
| 20260503033038 | 7 | 219 | 8.0 | 9.7 | 0.00 | 0.00 | 0.00 | 64 | 1017.8 |
| 20260503032511 | 7 | 226 | 8.0 | 9.7 | 0.00 | 0.00 | 0.00 | 64 | 1017.8 |
| 20260503032010 | 7 | 226 | 6.4 | 8.0 | 0.00 | 0.00 | 0.00 | 65 | 1017.9 |
| 20260503031535 | 7 | 228 | 6.4 | 8.0 | 0.00 | 0.00 | 0.00 | 66 | 1017.8 |
| 20260503031006 | 6 | 214 | 6.4 | 8.0 | 0.00 | 0.00 | 0.00 | 67 | 1017.9 |
| 20260503030504 | 6 | 215 | 6.4 | 8.0 | 0.00 | 0.00 | 0.00 | 69 | 1018.0 |
| 20260503030024 | 6 | 206 | 4.8 | 6.4 | 0.00 | 0.00 | 0.00 | 69 | 1017.9 |
| 20260503025506 | 6 | 211 | 4.8 | 6.4 | 0.00 | 0.00 | 0.00 | 68 | 1017.9 |
| 20260503025007 | 7 | 209 | 4.8 | 6.4 | 0.00 | 0.00 | 0.00 | 66 | 1017.9 |
| 20260503024523 | 7 | 214 | 4.8 | 6.4 | 0.00 | 0.00 | 0.00 | 65 | 1017.9 |
| 20260503024006 | 7 | 217 | 4.8 | 4.8 | 0.00 | 0.00 | 0.00 | 65 | 1018.0 |
| 20260503023510 | 7 | 220 | 3.2 | 6.4 | 0.00 | 0.00 | 0.00 | 67 | 1017.9 |
| 20260503023041 | 7 | 219 | 3.2 | 6.4 | 0.00 | 0.00 | 0.00 | 65 | 1018.0 |
| 20260503022509 | 7 | 221 | 4.8 | 4.8 | 0.00 | 0.00 | 0.00 | 64 | 1018.0 |
| 20260503022016 | 7 | 228 | 3.2 | 4.8 | 0.00 | 0.00 | 0.00 | 64 | 1018.0 |
| 20260503021525 | 7 | 228 | 4.8 | 4.8 | 0.00 | 0.00 | 0.00 | 63 | 1017.9 |
| 20260503021010 | 7 | 226 | 3.2 | 4.8 | 0.00 | 0.00 | 0.00 | 65 | 1017.9 |
| 20260503020512 | 7 | 229 | 3.2 | 4.8 | 0.00 | 0.00 | 0.00 | 66 | 1017.9 |
| 20260503020028 | 7 | 235 | 3.2 | 3.2 | 0.00 | 0.00 | 0.00 | 66 | 1017.7 |
| 20260503015508 | 7 | 233 | 3.2 | 4.8 | 0.00 | 0.00 | 0.00 | 64 | 1017.5 |
| 20260503015010 | 7 | 245 | 3.2 | 4.8 | 0.00 | 0.00 | 0.00 | 65 | 1017.4 |
| 20260503014520 | 7 | 240 | 3.2 | 4.8 | 0.00 | 0.00 | 0.00 | 65 | 1017.3 |
| 20260503014003 | 8 | 242 | 1.6 | 3.2 | 0.00 | 0.00 | 0.00 | 64 | 1017.3 |
| 20260503013503 | 8 | 244 | 3.2 | 4.8 | 0.00 | 0.00 | 0.00 | 63 | 1017.4 |
| 20260503013003 | 8 | 257 | 1.6 | 4.8 | 0.00 | 0.00 | 0.00 | 63 | 1017.4 |
| 20260503012503 | 8 | 260 | 3.2 | 4.8 | 0.00 | 0.00 | 0.00 | 61 | 1017.4 |
| 20260503012004 | 8 | 260 | 3.2 | 4.8 | 0.00 | 0.00 | 0.00 | 62 | 1017.3 |
| 20260503011507 | 8 | 263 | 3.2 | 4.8 | 0.00 | 0.00 | 0.00 | 59 | 1017.3 |
| 20260503011003 | 9 | 266 | 3.2 | 4.8 | 0.00 | 0.00 | 0.00 | 56 | 1017.3 |
| 20260503010504 | 10 | 269 | 3.2 | 4.8 | 0.00 | 0.00 | 0.00 | 53 | 1017.4 |
| 20260503010014 | 10 | 261 | 3.2 | 6.4 | 0.00 | 0.00 | 0.00 | 50 | 1017.4 |
| 20260503005504 | 11 | 285 | 4.8 | 6.4 | 0.00 | 0.00 | 0.00 | 43 | 1017.5 |
| 20260503005007 | 11 | 278 | 3.2 | 4.8 | 0.00 | 0.00 | 0.00 | 44 | 1017.4 |
| 20260503004515 | 11 | 276 | 0.0 | 1.6 | 0.00 | 0.00 | 0.00 | 45 | 1017.4 |
| 20260503004004 | 12 | 274 | 0.0 | 1.6 | 0.00 | 0.00 | 0.00 | 42 | 1017.4 |
| 20260503003507 | 12 | 274 | 0.0 | 4.8 | 0.00 | 0.00 | 0.00 | 41 | 1017.3 |
| 20260503003022 | 13 | 275 | 0.0 | 4.8 | 0.00 | 0.00 | 0.00 | 40 | 1017.3 |
| 20260503002506 | 13 | 286 | 0.0 | 6.4 | 0.00 | 0.00 | 0.00 | 39 | 1017.3 |
| 20260503002003 | 12 | 281 | 0.0 | 9.7 | 0.00 | 0.00 | 0.00 | 37 | 1017.3 |
| 20260503001505 | 12 | 278 | 6.4 | 9.7 | 0.00 | 0.00 | 0.00 | 35 | 1017.3 |
| 20260503001004 | 13 | 278 | 6.4 | 9.7 | 0.00 | 0.00 | 0.00 | 35 | 1017.3 |
| 20260503000503 | 13 | 290 | 4.8 | 6.4 | 0.00 | 0.00 | 0.00 | 35 | 1017.3 |
| 20260503000015 | 13 | 275 | 0.0 | 8.0 | 0.00 | 0.00 | 0.00 | 37 | 1017.3 |
| 20260502235504 | 13 | 305 | 1.6 | 8.0 | 0.00 | 0.00 | 0.00 | 36 | 1017.3 |
| 20260502235004 | 13 | 342 | 1.6 | 8.0 | 0.00 | 0.00 | 0.00 | 35 | 1017.3 |
| 20260502234514 | 13 | 309 | 1.6 | 8.0 | 0.00 | 0.00 | 0.00 | 35 | 1017.3 |
| 20260502234004 | 13 | 298 | 3.2 | 12.9 | 0.00 | 0.00 | 0.00 | 35 | 1017.3 |
| 20260502233506 | 13 | 285 | 4.8 | 12.9 | 0.00 | 0.00 | 0.00 | 34 | 1017.3 |
| 20260502233020 | 13 | 292 | 1.6 | 8.0 | 0.00 | 0.00 | 0.00 | 36 | 1017.4 |
| 20260502232507 | 13 | 348 | 0.0 | 3.2 | 0.00 | 0.00 | 0.00 | 36 | 1017.4 |
| 20260502232007 | 13 | 356 | 0.0 | 4.8 | 0.00 | 0.00 | 0.00 | 37 | 1017.5 |
| 20260502231523 | 13 | 290 | 0.0 | 4.8 | 0.00 | 0.00 | 0.00 | 36 | 1017.5 |
| 20260502231004 | 12 | 354 | 0.0 | 4.8 | 0.00 | 0.00 | 0.00 | 39 | 1017.5 |
| 20260502230504 | 12 | 32 | 0.0 | 4.8 | 0.00 | 0.00 | 0.00 | 38 | 1017.5 |
| 20260502230009 | 12 | 276 | 1.6 | 3.2 | 0.00 | 0.00 | 0.00 | 38 | 1017.6 |
| 20260502225503 | 12 | 228 | 1.6 | 3.2 | 0.00 | 0.00 | 0.00 | 39 | 1017.6 |
| 20260502225004 | 13 | 269 | 1.6 | 6.4 | 0.00 | 0.00 | 0.00 | 38 | 1017.6 |
| 20260502224509 | 13 | 67 | 3.2 | 6.4 | 0.00 | 0.00 | 0.00 | 38 | 1017.6 |
| 20260502224005 | 12 | 256 | 1.6 | 3.2 | 0.00 | 0.00 | 0.00 | 37 | 1017.7 |
| 20260502223505 | 13 | 323 | 1.6 | 6.4 | 0.00 | 0.00 | 0.00 | 38 | 1017.7 |
| 20260502223014 | 13 | 286 | 0.0 | 8.0 | 0.00 | 0.00 | 0.00 | 37 | 1017.7 |
| 20260502222505 | 13 | 323 | 3.2 | 8.0 | 0.00 | 0.00 | 0.00 | 35 | 1017.6 |
| 20260502222005 | 14 | 296 | 1.6 | 6.4 | 0.00 | 0.00 | 0.00 | 35 | 1017.6 |
| 20260502221519 | 13 | 254 | 0.0 | 8.0 | 0.00 | 0.00 | 0.00 | 36 | 1017.6 |
| 20260502221007 | 13 | 330 | 3.2 | 9.7 | 0.00 | 0.00 | 0.00 | 37 | 1017.6 |
| 20260502220509 | 14 | 268 | 4.8 | 16.1 | 0.00 | 0.00 | 0.00 | 37 | 1017.7 |
| 20260502220023 | 13 | 314 | 4.8 | 20.9 | 0.00 | 0.00 | 0.00 | 36 | 1017.7 |
| 20260502215505 | 13 | 273 | 8.0 | 20.9 | 0.00 | 0.00 | 0.00 | 35 | 1017.8 |
| 20260502215005 | 13 | 277 | 11.3 | 20.9 | 0.00 | 0.00 | 0.00 | 34 | 1017.8 |
| 20260502214509 | 13 | 328 | 1.6 | 20.9 | 0.00 | 0.00 | 0.00 | 37 | 1017.7 |
| 20260502214004 | 13 | 278 | 8.0 | 19.3 | 0.00 | 0.00 | 0.00 | 35 | 1017.7 |
| 20260502213506 | 14 | 282 | 8.0 | 19.3 | 0.00 | 0.00 | 0.00 | 37 | 1017.7 |
| 20260502213010 | 13 | 288 | 6.4 | 16.1 | 0.00 | 0.00 | 0.00 | 41 | 1017.6 |
| 20260502212506 | 13 | 277 | 11.3 | 20.9 | 0.00 | 0.00 | 0.00 | 34 | 1017.7 |
| 20260502212005 | 13 | 276 | 6.4 | 20.9 | 0.00 | 0.00 | 0.00 | 35 | 1017.8 |
| 20260502211514 | 13 | 266 | 4.8 | 20.9 | 0.00 | 0.00 | 0.00 | 37 | 1017.8 |
| 20260502211007 | 13 | 278 | 12.9 | 20.9 | 0.00 | 0.00 | 0.00 | 35 | 1017.8 |
| 20260502210507 | 13 | 237 | 4.8 | 9.7 | 0.00 | 0.00 | 0.00 | 39 | 1017.8 |
| 20260502210018 | 13 | 278 | 1.6 | 9.7 | 0.00 | 0.00 | 0.00 | 40 | 1017.9 |
| 20260502205507 | 13 | 6 | 3.2 | 12.9 | 0.00 | 0.00 | 0.00 | 40 | 1017.9 |
| 20260502205010 | 12 | 135 | 4.8 | 12.9 | 0.00 | 0.00 | 0.00 | 41 | 1017.9 |
| 20260502204526 | 12 | 299 | 3.2 | 9.7 | 0.00 | 0.00 | 0.00 | 38 | 1017.9 |
| 20260502204003 | 12 | 252 | 1.6 | 11.3 | 0.00 | 0.00 | 0.00 | 39 | 1017.9 |
| 20260502203503 | 13 | 292 | 3.2 | 11.3 | 0.00 | 0.00 | 0.00 | 38 | 1018.0 |
| 20260502203015 | 13 | 65 | 3.2 | 11.3 | 0.00 | 0.00 | 0.00 | 43 | 1018.0 |
| 20260502202503 | 12 | 29 | 4.8 | 11.3 | 0.00 | 0.00 | 0.00 | 39 | 1018.1 |
| 20260502202002 | 12 | 319 | 3.2 | 6.4 | 0.00 | 0.00 | 0.00 | 37 | 1018.2 |
| 20260502201514 | 13 | 307 | 1.6 | 6.4 | 0.00 | 0.00 | 0.00 | 40 | 1018.3 |
| 20260502201006 | 13 | 57 | 3.2 | 6.4 | 0.00 | 0.00 | 0.00 | 38 | 1018.3 |
| 20260502200507 | 13 | 310 | 3.2 | 9.7 | 0.00 | 0.00 | 0.00 | 40 | 1018.4 |
| 20260502200015 | 13 | 250 | 4.8 | 11.3 | 0.00 | 0.00 | 0.00 | 39 | 1018.4 |
| 20260502195512 | 13 | 42 | 4.8 | 11.3 | 0.00 | 0.00 | 0.00 | 39 | 1018.4 |
| 20260502195006 | 13 | 243 | 1.6 | 9.7 | 0.00 | 0.00 | 0.00 | 41 | 1018.5 |
| 20260502194521 | 13 | 321 | 3.2 | 9.7 | 0.00 | 0.00 | 0.00 | 41 | 1018.6 |
| 20260502194009 | 13 | 269 | 3.2 | 11.3 | 0.00 | 0.00 | 0.00 | 37 | 1018.6 |
| 20260502193508 | 13 | 58 | 1.6 | 11.3 | 0.00 | 0.00 | 0.00 | 37 | 1018.6 |
| 20260502193023 | 13 | 62 | 3.2 | 9.7 | 0.00 | 0.00 | 0.00 | 40 | 1018.6 |
| 20260502192503 | 12 | 338 | 1.6 | 6.4 | 0.00 | 0.00 | 0.00 | 39 | 1018.6 |
| 20260502192006 | 12 | 279 | 1.6 | 9.7 | 0.00 | 0.00 | 0.00 | 38 | 1018.7 |
| 20260502191519 | 12 | 65 | 1.6 | 11.3 | 0.00 | 0.00 | 0.00 | 38 | 1018.7 |
| 20260502191002 | 12 | 340 | 1.6 | 11.3 | 0.00 | 0.00 | 0.00 | 41 | 1018.7 |
| 20260502190506 | 12 | 79 | 6.4 | 11.3 | 0.00 | 0.00 | 0.00 | 42 | 1018.7 |
| 20260502190014 | 12 | 290 | 1.6 | 6.4 | 0.00 | 0.00 | 0.00 | 42 | 1018.8 |